| time (UTC) | temp C | wind direction | speed KPH | gust KPH | rain 1hr cm | rain 24hr cm | rain mn cm | humidity % | barometer mb |
| 20260504013844 | 10 | 191 | 3.2 | 6.4 | 0.00 | 0.00 | 0.00 | 66 | 1017.2 |
| 20260504012844 | 11 | 206 | 1.6 | 3.2 | 0.00 | 0.00 | 0.00 | 63 | 1017.3 |
| 20260504011844 | 11 | 193 | 4.8 | 4.8 | 0.00 | 0.00 | 0.00 | 57 | 1017.4 |
| 20260504010844 | 12 | 190 | 1.6 | 8.0 | 0.00 | 0.00 | 0.00 | 55 | 1017.4 |
| 20260504005844 | 12 | 194 | 1.6 | 8.0 | 0.00 | 0.00 | 0.00 | 53 | 1017.3 |
| 20260504004846 | 12 | 183 | 0.0 | 9.7 | 0.00 | 0.00 | 0.00 | 53 | 1017.4 |
| 20260504003844 | 13 | 218 | 6.4 | 14.5 | 0.00 | 0.00 | 0.00 | 51 | 1017.5 |
| 20260504002844 | 13 | 206 | 3.2 | 8.0 | 0.00 | 0.00 | 0.00 | 51 | 1017.9 |
| 20260504001844 | 13 | 182 | 6.4 | 12.9 | 0.00 | 0.00 | 0.00 | 51 | 1018.2 |
| 20260504000844 | 13 | 190 | 0.0 | 8.0 | 0.00 | 0.00 | 0.00 | 49 | 1018.2 |
| 20260503235844 | 13 | 196 | 8.0 | 11.3 | 0.00 | 0.00 | 0.00 | 48 | 1018.2 |
| 20260503234844 | 13 | 196 | 4.8 | 14.5 | 0.00 | 0.00 | 0.00 | 49 | 1018.1 |
| 20260503233844 | 14 | 196 | 3.2 | 11.3 | 0.00 | 0.00 | 0.00 | 47 | 1018.3 |
| 20260503232844 | 14 | 180 | 3.2 | 17.7 | 0.00 | 0.00 | 0.00 | 46 | 1018.2 |
| 20260503231844 | 14 | 193 | 0.0 | 9.7 | 0.00 | 0.00 | 0.00 | 46 | 1018.2 |
| 20260503230844 | 14 | 210 | 6.4 | 14.5 | 0.00 | 0.00 | 0.00 | 45 | 1018.3 |
| 20260503225844 | 14 | 215 | 8.0 | 16.1 | 0.00 | 0.00 | 0.00 | 46 | 1018.2 |
| 20260503224844 | 15 | 232 | 9.7 | 9.7 | 0.00 | 0.00 | 0.00 | 44 | 1018.2 |
| 20260503224125 | 15 | 189 | 8.0 | 22.5 | 0.00 | 0.00 | 0.00 | 45 | 1018.2 |
| 20260503223917 | 15 | 189 | 8.0 | 22.5 | 0.00 | 0.00 | 0.00 | 45 | 1018.2 |
| 20260503223844 | 15 | 189 | 8.0 | 22.5 | 0.00 | 0.00 | 0.00 | 45 | 1018.2 |
| 20260503222844 | 15 | 230 | 8.0 | 19.3 | 0.00 | 0.00 | 0.00 | 45 | 1018.2 |
| 20260503221845 | 15 | 179 | 8.0 | 14.5 | 0.00 | 0.00 | 0.00 | 45 | 1018.2 |
| 20260503220845 | 15 | 204 | 1.6 | 14.5 | 0.00 | 0.00 | 0.00 | 45 | 1018.1 |
| 20260503215844 | 15 | 191 | 3.2 | 14.5 | 0.00 | 0.00 | 0.00 | 43 | 1018.0 |
| 20260503214844 | 15 | 221 | 4.8 | 12.9 | 0.00 | 0.00 | 0.00 | 44 | 1018.1 |
| 20260503213846 | 15 | 0 | 0.0 | 12.9 | 0.00 | 0.00 | 0.00 | 42 | 1017.9 |
| 20260503212844 | 15 | 227 | 0.0 | 14.5 | 0.00 | 0.00 | 0.00 | 44 | 1017.8 |
| 20260503211844 | 16 | 214 | 9.7 | 19.3 | 0.00 | 0.00 | 0.00 | 42 | 1017.7 |
| 20260503210844 | 16 | 223 | 12.9 | 17.7 | 0.00 | 0.00 | 0.00 | 41 | 1017.5 |
| 20260503205844 | 16 | 217 | 11.3 | 19.3 | 0.00 | 0.00 | 0.00 | 43 | 1017.5 |
| 20260503204844 | 16 | 149 | 12.9 | 19.3 | 0.00 | 0.00 | 0.00 | 39 | 1017.5 |
| 20260503203844 | 16 | 0 | 0.0 | 16.1 | 0.00 | 0.00 | 0.00 | 42 | 1017.4 |
| 20260503202844 | 16 | 0 | 0.0 | 0.0 | 0.00 | 0.00 | 0.00 | 42 | 1017.5 |
| 20260503201844 | 16 | 0 | 0.0 | 0.0 | 0.00 | 0.00 | 0.00 | 42 | 1017.5 |
| 20260503200847 | 16 | 0 | 0.0 | 0.0 | 0.00 | 0.00 | 0.00 | 38 | 1017.8 |
| 20260503195844 | 16 | 0 | 0.0 | 0.0 | 0.00 | 0.00 | 0.00 | 42 | 1018.2 |
| 20260503194844 | 16 | 0 | 0.0 | 0.0 | 0.00 | 0.00 | 0.00 | 40 | 1018.3 |
| 20260503193844 | 16 | 0 | 0.0 | 0.0 | 0.00 | 0.00 | 0.00 | 44 | 1018.8 |
| 20260503192844 | 16 | 0 | 0.0 | 0.0 | 0.00 | 0.00 | 0.00 | 45 | 1019.2 |
| 20260503191845 | 16 | 0 | 0.0 | 0.0 | 0.00 | 0.00 | 0.00 | 43 | 1019.6 |
| 20260503190844 | 15 | 0 | 0.0 | 0.0 | 0.00 | 0.00 | 0.00 | 39 | 1019.8 |
| 20260503185844 | 16 | 0 | 0.0 | 0.0 | 0.00 | 0.00 | 0.00 | 41 | 1020.0 |
| 20260503184844 | 16 | 0 | 0.0 | 0.0 | 0.00 | 0.00 | 0.00 | 42 | 1020.1 |
| 20260503183847 | 16 | 0 | 0.0 | 0.0 | 0.00 | 0.00 | 0.00 | 40 | 1020.2 |
| 20260503182844 | 16 | 0 | 0.0 | 0.0 | 0.00 | 0.00 | 0.00 | 41 | 1020.1 |
| 20260503181844 | 16 | 0 | 0.0 | 0.0 | 0.00 | 0.00 | 0.00 | 46 | 1020.2 |
| 20260503180844 | 15 | 0 | 0.0 | 0.0 | 0.00 | 0.00 | 0.00 | 48 | 1020.3 |
| 20260503175844 | 15 | 0 | 0.0 | 0.0 | 0.00 | 0.00 | 0.00 | 43 | 1020.4 |
| 20260503174844 | 16 | 0 | 0.0 | 0.0 | 0.00 | 0.00 | 0.00 | 45 | 1020.5 |
| 20260503173844 | 15 | 0 | 0.0 | 0.0 | 0.00 | 0.00 | 0.00 | 45 | 1020.7 |
| 20260503172844 | 15 | 0 | 0.0 | 0.0 | 0.00 | 0.00 | 0.00 | 45 | 1020.8 |
| 20260503171845 | 15 | 0 | 0.0 | 0.0 | 0.00 | 0.00 | 0.00 | 44 | 1020.9 |
| 20260503170844 | 15 | 0 | 0.0 | 0.0 | 0.00 | 0.00 | 0.00 | 43 | 1021.0 |
| 20260503150846 | 12 | 303 | 8.0 | 16.1 | 0.00 | 0.00 | 0.00 | 44 | 1021.7 |
| 20260503130844 | 9 | 230 | 11.3 | 11.3 | 0.00 | 0.03 | 0.00 | 58 | 1021.8 |
| 20260503080845 | 0 | 0 | 0.0 | 0.0 | 0.00 | 0.30 | 0.00 | 97 | 1020.6 |
| 20260503072845 | 0 | 0 | 0.0 | 4.8 | 0.00 | 0.30 | 0.00 | 96 | 1020.4 |
| 20260503071845 | 0 | 0 | 0.0 | 4.8 | 0.00 | 0.30 | 0.00 | 96 | 1020.4 |
| 20260503070845 | 0 | 0 | 0.0 | 0.0 | 0.00 | 0.30 | 0.00 | 96 | 1020.3 |
| 20260503054844 | 2 | 0 | 0.0 | 0.0 | 0.00 | 0.33 | 0.00 | 94 | 1020.3 |
| 20260503053844 | 2 | 0 | 0.0 | 0.0 | 0.00 | 0.33 | 0.00 | 93 | 1020.3 |
| 20260503052845 | 2 | 0 | 0.0 | 0.0 | 0.00 | 0.33 | 0.00 | 93 | 1020.4 |
| 20260503052114 | 3 | 0 | 0.0 | 0.0 | 0.00 | 0.33 | 0.00 | 92 | 1020.5 |
| 20260503051844 | 3 | 0 | 0.0 | 0.0 | 0.00 | 0.33 | 0.00 | 92 | 1020.5 |
| 20260503050846 | 3 | 0 | 0.0 | 0.0 | 0.00 | 0.33 | 0.00 | 92 | 1020.6 |
| 20260503045844 | 3 | 0 | 0.0 | 0.0 | 0.00 | 0.33 | 0.00 | 92 | 1020.7 |
| 20260503044844 | 3 | 0 | 0.0 | 0.0 | 0.00 | 0.33 | 0.00 | 92 | 1020.8 |
| 20260503043844 | 3 | 0 | 0.0 | 0.0 | 0.00 | 0.33 | 0.00 | 92 | 1020.8 |
| 20260503042845 | 3 | 0 | 0.0 | 0.0 | 0.00 | 0.33 | 0.00 | 91 | 1020.9 |
| 20260503041844 | 3 | 0 | 0.0 | 0.0 | 0.00 | 0.33 | 0.00 | 92 | 1021.0 |
| 20260503041037 | 3 | 0 | 0.0 | 0.0 | 0.00 | 0.33 | 0.00 | 92 | 1021.1 |
| 20260503040844 | 3 | 0 | 0.0 | 0.0 | 0.00 | 0.33 | 0.00 | 92 | 1021.1 |
| 20260503035847 | 3 | 0 | 0.0 | 0.0 | 0.00 | 0.33 | 0.33 | 92 | 1021.1 |
| 20260503034844 | 3 | 0 | 0.0 | 0.0 | 0.00 | 0.33 | 0.33 | 92 | 1021.1 |
| 20260503033844 | 3 | 0 | 0.0 | 0.0 | 0.00 | 0.33 | 0.33 | 91 | 1021.2 |
| 20260503032844 | 3 | 0 | 0.0 | 0.0 | 0.00 | 0.33 | 0.33 | 89 | 1021.3 |
| 20260503031844 | 3 | 0 | 0.0 | 0.0 | 0.00 | 0.33 | 0.33 | 90 | 1021.5 |
| 20260503030847 | 3 | 0 | 0.0 | 0.0 | 0.00 | 0.33 | 0.33 | 89 | 1021.5 |
| 20260503025844 | 4 | 0 | 0.0 | 0.0 | 0.00 | 0.33 | 0.33 | 89 | 1021.6 |
| 20260503024844 | 3 | 0 | 0.0 | 0.0 | 0.00 | 0.33 | 0.33 | 89 | 1021.7 |
| 20260503023845 | 4 | 0 | 0.0 | 0.0 | 0.00 | 0.33 | 0.33 | 89 | 1021.9 |
| 20260503022845 | 4 | 0 | 0.0 | 0.0 | 0.00 | 0.33 | 0.33 | 88 | 1022.0 |
| 20260503021844 | 4 | 0 | 0.0 | 0.0 | 0.00 | 0.33 | 0.33 | 88 | 1022.1 |
| 20260503020844 | 4 | 0 | 0.0 | 0.0 | 0.00 | 0.33 | 0.33 | 87 | 1022.4 |
| 20260503020033 | 4 | 0 | 0.0 | 0.0 | 0.00 | 0.33 | 0.33 | 87 | 1022.3 |
| 20260503015844 | 4 | 0 | 0.0 | 0.0 | 0.00 | 0.33 | 0.33 | 87 | 1022.3 |
| 20260503014844 | 4 | 0 | 0.0 | 0.0 | 0.00 | 0.33 | 0.33 | 84 | 1022.3 |